Location: Chrome
(40.5765°N, 74.2163°W)
Time: 21:22:18
(UTC+00:00)

SMAP - Pass Details

Date: 06 December 2019
Orbit: 681 x 684 km, 98.1° (Epoch: 21 January)

Event Time Altitude Azimuth Distance (km) Brightness Sun altitude
Rises 22:54:38 0° 184° (S) 3,031 6.7 -15.6°
Reaches altitude 10° 22:56:58 10° 191° (SSW) 2,120 6.0 -16.1°
Maximum altitude 23:01:20 40° 261° (W) 999 4.5 -16.9°
Drops below altitude 10° 23:05:44 10° 332° (NNW) 2,136 5.8 -17.7°
Sets 23:08:07 0° 340° (NNW) 3,056 6.5 -18.1°
